Location: Cargill Incorporated Elevator
(42.7294°N, 93.7333°W)
Time: 14:04:47
(UTC+00:00)

Cosmos 2084 Rocket - Visible Passes

Search period start: 19 April 2026 00:00
Search period end: 29 April 2026 00:00
Orbit: 534 x 577 km, 62.8° (Epoch: 19 April)

Date Brightness Start Highest point End Pass type
(mag) Time Alt. Az. Time Alt. Az. Time Alt. Az.
19 Apr 3.2 01:50:40 10° SSW 01:54:41 72° SE 01:58:46 10° NE visible
19 Apr 6.3 03:31:09 10° WNW 03:33:51 17° NW 03:36:36 10° N visible
19 Apr 6.4 08:33:26 10° N 08:36:03 16° NE 08:38:40 10° ENE visible
19 Apr 3.3 10:11:05 10° NW 10:15:19 86° SW 10:19:34 10° SE visible
20 Apr 3.4 01:47:23 10° SW 01:51:25 83° NW 01:55:33 10° NE visible
20 Apr 6.6 03:28:38 10° WNW 03:30:49 14° NNW 03:32:59 10° N visible
20 Apr 6.1 08:29:54 10° N 08:32:58 19° NE 08:36:04 10° E visible
20 Apr 3.3 10:07:53 10° NW 10:12:03 63° WSW 10:16:15 10° SSE visible
21 Apr 4.0 01:44:13 10° SW 01:48:12 60° NW 01:52:17 10° NNE visible
21 Apr 6.7 03:26:23 10° NW 03:27:46 11° NNW 03:29:10 10° N visible
21 Apr 5.7 08:26:25 10° NNW 08:29:52 24° NE 08:33:20 10° E visible
21 Apr 3.6 10:04:44 10° NW 10:08:46 45° WSW 10:12:49 10° SSE visible
22 Apr 4.7 01:41:08 10° WSW 01:45:00 44° NW 01:48:57 10° NNE visible
22 Apr 5.3 08:23:00 10° NNW 08:26:44 30° NE 08:30:30 10° ESE visible
22 Apr 4.0 10:01:40 10° NW 10:05:27 33° WSW 10:09:16 10° S visible
23 Apr 5.3 01:38:08 10° WSW 01:41:49 33° NW 01:45:35 10° NNE visible
23 Apr 4.7 08:19:36 10° NNW 08:23:34 39° NE 08:27:33 10° ESE visible
23 Apr 4.4 09:58:42 10° WNW 10:02:07 24° WSW 10:05:32 10° S visible
24 Apr 5.8 01:35:14 10° W 01:38:40 26° NW 01:42:11 10° NNE visible
24 Apr 6.6 06:39:43 10° NNE 06:40:44 11° NNE 06:41:45 10° NE visible
24 Apr 4.3 08:16:15 10° NNW 08:19:45 47° NNE 08:19:45 47° NNE visible
25 Apr 6.2 01:32:25 10° W 01:35:33 21° NW 01:38:43 10° N visible
25 Apr 6.4 06:35:42 10° N 06:37:42 13° NNE 06:39:10 11° NE visible
25 Apr 5.1 08:12:57 10° NNW 08:14:51 26° NNW 08:14:51 26° NNW visible
26 Apr 6.1 06:32:01 10° N 06:34:37 16° NE 06:34:54 16° NE visible
26 Apr 5.7 08:09:40 10° NW 08:10:38 17° NW 08:10:38 17° NW visible
27 Apr 5.9 06:28:28 10° N 06:30:57 19° NNE 06:30:57 19° NNE visible
27 Apr 6.0 08:06:28 10° NW 08:06:42 11° NW 08:06:42 11° NW visible
28 Apr 5.8 06:24:58 10° NNW 06:27:11 21° NNE 06:27:11 21° NNE visible
